Location: Cucq
(50.4773°N, 1.6202°E)
Time: 10:21:20
(UTC+00:00)

CZ-4 R/B - Pass Details

Date: 07 August 2020
Orbit: 682 x 752 km, 98.5° (Epoch: 20 September)

Event Time Altitude Azimuth Distance (km) Brightness Sun altitude
Rises 00:57:13 0° 11° (NNE) 3,177 8.7 -22.0°
Reaches altitude 10° 00:59:31 10° 8° (N) 2,259 7.6 -21.9°
Maximum altitude 01:04:23 57° 291° (WNW) 878 4.2 -21.7°
Enters shadow 01:05:45 43° 238° (WSW) 1,053 4.3 -21.6°
